Presure
192 183 189 159 157 149 152 158 147 146 139 141 140 140 133 141 141 136 135 134 159 139 137 141 138 185 200 192 198 198 185 161 185 82 124 189 184 186 227 184 211 179 169
119 132 135 176 180 175 174 173 160 164 135 143 144 132 149 144 136 133 153 137 175 138 173 137 232 206 183 194 194 202 113 190 83 181 187 179 180 175 185 164 188 191 197
128 123 146 127 140 165 168 175 179 147 158 168 142 145 149 140 135 131 135 134 183 135 206 143 232 176 208 198 140 173 190 185 181 182 176 181 181 200 166 181 189 156 171
214 133 150 199 127 180 179 171 171 180 180 170 175 172 144 135 128 134 133 165 169 195 216 194 213 209 168 203 130 187 187 202 178 177 150 176 199 164 191 170 201 214 182
191 151 172 204 135 182 172 165 174 176 181 155 179 178 159 171 132 172 124 167 175 166 187 194 227 171 207 128 201 171 201 200 169 140 162 179 173 182 161 193 162 163 150
213 158 217 134 182 123 138 168 188 180 177 174 142 140 132 187 188 180 124 163 186 184 194 190 221 206 206 219 229 231 208 181 167 176 194 152 154 162 197 176 190 187 197
178 184 166 116 165 195 172 157 170 183 182 172 193 167 157 170 175 172 127 127 131 161 184 192 139 206 202 186 173 90 170 172 199 160 155 159 179 163 203 173 171 194 176
206 221 218 176 213 186 189 118 125 184 189 186 194 177 144 174 126 176 151 177 178 125 173 210 174 170 174 102 90 150 164 163 146 170 192 168 184 159 168 188 163 172 192
199 203 173 177 164 184 189 142 190 125 170 194 168 178 181 180 183 161 184 152 174 175 164 165 201 160 90 91 90 148 159 160 153 168 166 163 148 166 171 177 160 149 196
175 176 190 174 194 185 175 191 176 191 183 196 167 177 169 183 149 157 151 188 194 133 183 172 199 139 85 83 140 163 171 165 151 173 165 166 152 158 185 164 199 169 165
183 201 198 199 204 190 191 160 125 173 161 176 176 178 179 165 151 181 170 181 192 183 181 187 178 139 168 156 94 183 165 160 170 150 148 185 147 201 197 211 197 203 167
199 214 205 171 174 191 187 202 195 176 186 142 155 166 172 168 150 171 193 168 186 181 193 205 163 85 148 91 204 169 179 173 153 163 167 167 161 141 133 159 175 187 181
200 188 195 197 181 165 180 205 199 165 160 199 157 166 176 170 171 183 182 180 189 177 212 202 79 146 89 147 134 177 200 164 164 159 161 171 180 165 177 189 191 183 189
188 216 211 202 176 171 213 195 207 168 174 191 162 182 162 173 184 163 160 170 171 206 203 205 85 191 85 160 174 191 176 184 157 160 150 150 172 166 154 173 162 171 189
209 173 184 168 173 216 160 167 189 173 196 143 126 178 179 190 186 151 185 182 197 206 201 209 151 97 148 174 195 175 192 178 166 161 160 165 165 158 191 171 167 196 156
210 182 201 188 175 174 188 184 204 178 213 230 164 186 186 172 168 184 202 198 204 202 165 153 89 87 185 190 163 184 187 182 147 146 167 160 168 173 162 202 174 163 177
137 178 183 178 109 199 182 189 202 135 141 183 187 163 165 132 199 152 213 195 202 185 163 118 172 180 166 181 192 190 185 183 138 145 173 164 153 182 152 166 205 194 181
147 169 201 213 177 173 183 192 182 192 101 95 97 96 100 192 148 165 190 194 169 142 92 174 164 102 183 172 185 172 184 139 179 179 187 164 162 182 180 166 175 161 175
183 190 185 185 185 180 176 175 170 189 187 178 179 150 159 162 192 183 178 147 160 166 141 157 166 176 165 152 143 185 169 184 158 174 155 213 165 176 167 160 208 161 199
174 188 174 165 170 181 178 185 177 180 175 180 225 210 176 180 170 183 179 189 185 153 161 149 161 181 158 179 160 167 183 159 165 167 191 189 172 184 200 186 190 191 179
167 194 180 184 190 192 194 179 184 188 181 179 201 182 180 193 184 168 176 167 160 188 141 170 129 155 185 165 196 191 150 163 151 184 202 181 172 170 180 167 160 193 214
183 187 192 195 169 177 187 182 195 181 171 173 193 173 171 167 181 180 194 155 156 146 157 169 164 172 189 184 176 218 178 167 180 190 195 209 200 192 177 199 216 194 173
187 179 192 182 136 190 192 194 185 187 179 187 188 173 179 183 178 171 182 188 166 187 199 180 178 165 178 191 177 187 189 183 180 198 160 182 201 176 192 193 196 209 195
196 190 182 194 192 169 150 192 188 193 201 187 200 183 191 191 176 181 180 184 194 205 196 161 176 176 171 197 174 192 164 201 195 194 206 200 190 192 201 195 208 201 193
180 188 204 205 200 200 189 187 201 185 194 190 197 195 188 196 197 192 186 185 179 200 188 214 195 199 201 210 203 196 206 212 160 204 183 159 202 182 211 208 196 210 208
202 204 204 202 202 204 185 213 142 201 209 215 193 189 199 207 195 199 195 203 205 232 209 189 220 205 195 217 190 200 190 197 197 164 186 195 170 200 195 193 183 219 193
Wind_Speed
66 63 63 56 57 52 54 59 46 42 42 41 39 39 39 37 38 42 46 46 44 41 44 46 47 39 29 33 29 29 37 44 40 34 39 50 57 57 35 58 46 55 41
38 35 43 61 60 59 60 59 59 62 45 44 42 41 39 38 40 45 45 48 47 42 46 48 24 29 34 31 30 28 39 32 32 45 41 53 56 56 63 44 42 55 57
42 39 48 39 43 62 62 62 61 47 53 56 42 45 42 37 41 48 48 50 46 44 39 47 23 41 27 29 50 34 34 33 31 41 49 51 55 50 52 66 55 32 47
66 46 57 68 41 62 64 64 62 64 58 56 55 54 47 41 45 48 51 49 49 45 37 38 30 28 46 26 47 31 29 30 38 41 40 53 43 53 53 46 53 44 70
64 60 59 67 48 63 60 58 65 64 60 49 54 46 55 59 46 46 52 46 46 53 40 38 25 45 25 43 31 30 24 23 38 43 48 36 57 47 47 53 48 42 35
62 68 68 51 60 46 48 59 67 63 59 56 44 46 42 54 52 46 55 44 39 41 40 38 28 27 25 27 28 29 21 31 40 38 37 43 49 56 41 62 59 48 42
65 62 69 50 68 64 59 61 59 66 64 56 52 54 50 55 53 47 59 56 52 35 44 36 43 28 25 27 39 35 38 40 27 49 48 52 52 60 35 61 68 53 67
59 61 61 56 63 61 64 47 44 64 65 58 51 59 48 59 53 50 52 41 41 36 47 35 38 42 40 28 34 46 39 43 44 48 34 55 41 57 64 58 62 66 62
59 57 65 64 67 64 62 61 66 47 57 57 49 60 58 58 56 49 49 36 41 36 49 47 37 49 31 33 36 49 49 51 49 49 46 52 42 59 59 59 58 44 61
62 66 62 65 57 60 68 70 60 65 56 58 54 58 56 57 51 44 50 47 44 33 39 47 34 38 29 32 50 49 47 49 53 50 53 49 46 52 45 64 46 53 66
64 64 64 57 62 62 66 67 57 58 57 58 59 60 59 52 51 55 46 49 48 42 40 41 42 41 46 51 43 44 52 55 50 42 40 51 42 48 47 47 47 47 74
70 57 59 59 52 58 58 68 69 64 61 53 54 58 56 53 54 54 58 45 52 48 50 48 49 33 47 38 40 53 49 49 47 57 58 49 61 43 48 60 54 54 62
74 64 61 57 60 55 57 69 70 62 59 65 59 57 61 55 54 61 53 53 53 51 50 49 27 51 39 59 55 40 45 56 59 55 56 62 58 66 61 52 51 56 58
55 72 75 68 56 52 63 58 64 64 63 67 58 65 55 62 65 56 52 54 55 57 52 48 35 48 35 63 56 41 53 52 58 59 47 51 65 66 58 63 65 65 57
80 55 61 63 57 62 65 59 59 61 69 60 58 60 62 67 67 55 64 63 60 58 54 50 51 39 48 59 42 57 44 59 63 60 60 68 69 55 57 67 57 58 65
65 66 66 62 64 63 65 68 68 60 66 67 56 66 68 68 55 62 69 65 64 59 50 63 41 40 46 44 57 53 50 56 49 48 65 64 71 66 65 54 64 68 70
51 67 71 67 50 69 71 67 68 53 52 65 68 56 57 56 67 58 63 61 63 51 58 50 58 56 62 52 48 53 58 63 46 53 64 73 56 61 56 69 58 63 69
59 63 79 68 77 68 76 74 75 76 47 44 40 43 44 60 67 64 60 66 58 61 40 58 65 50 60 61 57 67 59 47 67 67 63 74 76 72 74 72 75 68 76
89 92 89 91 94 84 76 72 65 82 77 63 66 69 67 68 64 61 59 66 70 65 57 66 67 64 68 62 61 61 75 63 69 70 70 69 78 79 72 65 68 70 66
76 100 84 61 67 86 81 85 79 83 69 75 74 76 72 66 72 67 64 65 70 66 71 65 66 74 71 69 73 69 67 77 74 67 68 71 77 79 75 74 73 75 76
76 113 91 104 102 103 102 82 94 94 84 79 84 76 77 72 71 76 73 76 77 71 65 78 58 70 81 69 81 76 63 78 61 75 76 76 77 81 80 75 67 78 85
97 111 111 111 71 83 108 95 105 89 73 76 93 78 83 78 79 80 78 81 79 68 77 85 81 81 83 83 76 82 74 79 76 84 78 86 80 79 85 81 88 78 78
115 95 118 101 54 113 108 103 99 92 88 100 93 83 85 90 84 85 88 89 83 87 85 90 91 79 85 89 76 79 85 81 78 89 76 80 85 83 82 83 79 83 76
125 115 99 110 117 91 66 115 109 116 112 100 103 98 101 98 91 99 94 96 95 92 88 86 92 85 81 93 83 85 80 95 91 89 98 89 80 85 88 86 85 82 76
100 103 131 130 123 123 113 106 119 93 117 103 109 109 99 106 103 103 99 97 95 91 98 101 91 93 92 98 93 89 95 94 77 100 81 77 99 84 93 91 81 89 79
135 138 136 132 135 132 98 121 58 128 124 112 105 93 104 110 102 105 103 102 103 95 94 94 95 95 96 107 86 90 83 89 98 81 86 86 86 94 83 81 80 97 72
Wind_Direction
234 235 237 248 249 252 252 257 253 251 254 258 258 261 264 267 272 275 278 281 293 287 288 294 293 306 302 307 311 309 309 315 321 307 316 325 326 334 335 342 331 350 347
247 255 243 237 240 243 248 250 256 260 256 259 259 257 268 267 267 274 285 282 299 288 302 290 291 299 298 305 305 302 308 317 310 313 326 323 326 335 332 346 339 339 340
252 246 245 252 250 243 247 250 251 257 259 261 259 264 266 263 267 272 277 279 300 283 309 291 292 309 293 299 306 303 306 316 315 313 318 323 327 326 343 336 344 330 350
235 254 251 238 253 240 245 249 253 255 257 260 263 268 267 258 266 270 274 292 294 306 313 306 298 292 305 294 306 302 307 315 310 313 319 321 327 335 326 339 332 354 341
241 251 243 236 255 241 245 253 252 257 260 263 262 267 268 274 264 284 278 290 295 295 300 303 295 301 293 303 291 296 304 306 310 318 326 322 325 329 331 326 342 328 330
235 247 234 245 238 250 251 249 249 254 260 261 256 259 259 277 281 284 276 286 294 299 302 300 298 299 299 299 289 284 295 302 311 314 316 315 320 331 318 327 332 335 347
242 240 242 249 245 238 243 254 253 254 258 263 260 262 264 274 278 280 273 281 285 290 296 295 300 296 300 296 304 313 311 310 305 318 321 322 320 330 324 327 334 336 336
234 233 231 241 235 238 241 247 248 254 256 257 259 260 268 274 263 280 278 287 289 286 288 294 290 296 298 310 308 305 304 309 313 313 310 318 317 331 326 327 333 324 324
224 224 241 241 244 243 242 256 248 249 255 255 258 260 263 270 277 277 282 282 284 279 284 287 288 291 295 306 312 306 306 308 312 311 311 316 314 322 322 321 329 322 329
242 245 239 249 241 241 243 243 247 249 255 252 255 259 268 268 267 273 277 284 285 272 278 278 285 282 303 314 304 299 298 303 308 306 310 317 324 323 314 322 312 322 317
241 236 237 236 241 242 243 246 247 250 255 255 258 260 263 272 266 276 278 282 284 280 274 277 274 282 284 290 305 285 298 302 299 316 314 310 321 316 311 323 307 320 324
239 238 236 241 247 237 244 241 245 251 252 257 264 261 270 273 267 279 279 275 281 277 287 285 271 302 281 307 296 288 283 288 301 297 300 305 309 308 304 323 324 300 308
236 241 238 241 239 241 244 240 242 256 255 251 252 263 262 270 275 274 278 279 280 283 281 283 306 279 298 295 295 293 285 287 289 298 300 300 301 311 307 310 310 308 305
247 237 239 240 238 245 239 247 246 253 260 252 261 266 269 275 271 269 273 282 279 281 277 280 290 269 303 276 278 278 273 274 301 299 315 318 299 307 322 310 315 310 310
235 240 249 237 244 243 242 249 254 258 256 262 263 271 271 265 269 262 276 276 277 277 274 273 291 291 276 270 279 274 281 273 282 298 303 299 305 309 302 307 303 312 315
229 251 235 243 248 250 252 259 251 262 256 256 265 267 270 263 273 279 275 269 274 276 270 275 284 295 274 272 287 272 278 273 306 310 297 306 301 302 310 312 307 310 308
252 252 251 251 245 252 259 259 250 251 255 264 267 261 269 264 273 268 269 276 274 263 266 274 271 270 278 274 283 280 280 277 301 304 296 298 304 311 309 310 317 310 309
251 254 248 237 259 256 260 259 259 263 251 251 255 254 253 269 262 268 270 272 260 274 282 268 272 285 276 274 279 274 283 298 281 283 292 298 298 299 297 308 304 313 308
250 250 253 254 256 257 259 259 254 265 269 261 263 257 257 261 267 267 268 271 265 264 270 271 270 272 270 288 293 281 275 284 290 294 300 309 295 295 300 305 314 307 313
250 248 253 256 255 256 259 256 258 260 257 263 257 259 260 264 259 261 260 269 271 268 267 275 278 274 277 276 276 283 281 285 285 293 295 294 290 296 308 298 311 306 302
252 245 253 255 254 255 254 257 260 262 262 261 264 262 260 262 261 261 257 257 264 269 273 270 284 280 274 275 283 280 288 282 290 288 301 292 290 293 295 301 304 311 314
245 249 249 250 256 255 258 260 258 260 258 260 264 260 260 258 264 262 266 267 268 271 272 269 274 273 274 275 278 279 278 279 284 292 297 302 304 298 290 307 312 308 301
244 247 248 250 253 254 254 258 259 257 259 262 261 259 260 261 260 260 263 267 271 268 267 266 270 275 275 276 278 282 283 280 283 292 289 295 300 289 299 301 306 311 308
239 244 248 248 249 253 258 256 259 261 262 260 256 260 261 260 261 261 262 266 268 269 268 274 269 276 276 275 279 279 280 284 283 288 293 296 291 294 303 301 306 303 302
245 245 242 245 248 251 253 254 257 258 260 259 257 258 259 260 261 262 265 264 265 271 271 273 273 275 278 277 280 282 286 283 281 287 283 286 295 288 302 306 299 308 308
239 241 244 247 248 250 252 253 258 256 259 258 258 261 264 262 265 262 267 267 270 270 273 274 278 275 280 283 281 284 281 287 281 281 282 289 284 295 292 293 292 311 299